Time,TemperatureF,DewpointF,PressureIn,WindDirection,WindDirectionDegrees,WindSpeedMPH,WindSpeedGustMPH,Humidity,HourlyPrecipIn,Conditions,Clouds,dailyrainin,SoftwareType,DateUTC
2013-10-31 00:00:00,46.0,43.8,29.34,SSW,202,0.0,0.0,92,0.00,,,-99.99,VWS V12.07,2013-10-31 05:00:00,
2013-10-31 00:05:00,46.0,43.8,29.34,SSW,202,0.0,0.0,92,0.00,,,-99.99,VWS V12.07,2013-10-31 05:05:00,
2013-10-31 00:10:00,46.0,43.8,29.33,SSW,202,0.0,0.0,92,0.00,,,-99.99,VWS V12.07,2013-10-31 05:10:00,
2013-10-31 00:15:00,46.0,43.8,29.33,SSW,202,0.0,0.0,92,0.00,,,-99.99,VWS V12.07,2013-10-31 05:15:00,
2013-10-31 00:20:00,46.0,43.8,29.33,SSW,202,0.0,0.0,92,0.00,,,-99.99,VWS V12.07,2013-10-31 05:20:00,
2013-10-31 00:25:00,46.0,43.8,29.32,SSW,202,0.0,0.0,92,0.00,,,-99.99,VWS V12.07,2013-10-31 05:25:00,
2013-10-31 00:30:00,46.0,43.8,29.32,SSW,202,0.0,0.0,92,0.00,,,-99.99,VWS V12.07,2013-10-31 05:30:00,
2013-10-31 00:35:00,46.0,43.8,29.31,SSW,202,0.0,0.0,92,0.00,,,-99.99,VWS V12.07,2013-10-31 05:35:00,
2013-10-31 00:40:00,46.0,43.8,29.31,SSW,202,0.0,0.0,92,0.00,,,-99.99,VWS V12.07,2013-10-31 05:40:00,
2013-10-31 00:45:00,46.2,44.0,29.31,SSW,202,0.0,0.0,92,0.00,,,-99.99,VWS V12.07,2013-10-31 05:45:00,
2013-10-31 00:50:00,46.2,44.0,29.31,SSW,202,0.0,0.0,92,0.00,,,-99.99,VWS V12.07,2013-10-31 05:50:00,
2013-10-31 00:55:00,46.2,44.0,29.31,SSW,202,0.0,0.0,92,0.00,,,-99.99,VWS V12.07,2013-10-31 05:55:00,
2013-10-31 01:00:00,46.2,44.0,29.30,SSW,202,0.0,0.0,92,0.00,,,-99.99,VWS V12.07,2013-10-31 06:00:00,
2013-10-31 01:05:00,46.2,44.0,29.29,SSW,202,0.0,0.0,92,0.00,,,-99.99,VWS V12.07,2013-10-31 06:05:00,
2013-10-31 01:10:00,46.2,44.0,29.30,SSW,202,0.0,0.0,92,0.00,,,-99.99,VWS V12.07,2013-10-31 06:10:00,
2013-10-31 01:15:00,46.4,44.2,29.29,SSW,202,0.0,0.0,92,0.00,,,-99.99,VWS V12.07,2013-10-31 06:15:00,
2013-10-31 01:20:00,46.4,44.2,29.29,SSW,202,0.0,0.0,92,0.00,,,-99.99,VWS V12.07,2013-10-31 06:20:00,
2013-10-31 01:25:00,46.5,44.3,29.29,SSW,202,0.0,0.0,92,0.00,,,-99.99,VWS V12.07,2013-10-31 06:25:00,
2013-10-31 01:30:00,46.5,44.3,29.28,SSW,202,0.0,0.0,92,0.00,,,-99.99,VWS V12.07,2013-10-31 06:30:00,
2013-10-31 01:35:00,46.5,44.3,29.28,SSW,202,0.0,0.0,92,0.00,,,-99.99,VWS V12.07,2013-10-31 06:35:00,
2013-10-31 01:40:00,46.5,44.3,29.28,SSW,202,0.0,0.0,92,0.00,,,-99.99,VWS V12.07,2013-10-31 06:40:00,
2013-10-31 01:45:00,46.5,44.3,29.28,SSW,202,0.0,0.0,92,0.00,,,-99.99,VWS V12.07,2013-10-31 06:45:00,
2013-10-31 01:50:00,46.5,44.3,29.28,SSW,202,0.0,0.0,92,0.00,,,-99.99,VWS V12.07,2013-10-31 06:50:00,
2013-10-31 01:55:00,46.5,44.3,29.27,SSW,202,0.0,0.0,92,0.00,,,-99.99,VWS V12.07,2013-10-31 06:55:00,
2013-10-31 02:00:00,46.5,44.3,29.27,SSW,202,0.0,0.0,92,0.00,,,-99.99,VWS V12.07,2013-10-31 07:00:00,
2013-10-31 02:05:00,46.5,44.3,29.27,SSW,202,0.0,0.0,92,0.00,,,-99.99,VWS V12.07,2013-10-31 07:05:00,
2013-10-31 02:10:00,46.5,44.3,29.26,SSW,202,0.0,0.0,92,0.00,,,-99.99,VWS V12.07,2013-10-31 07:10:00,
2013-10-31 02:15:00,46.5,44.3,29.27,SSW,202,0.0,0.0,92,0.00,,,-99.99,VWS V12.07,2013-10-31 07:15:00,
2013-10-31 02:20:00,46.5,44.3,29.26,SSW,202,0.0,0.0,92,0.00,,,-99.99,VWS V12.07,2013-10-31 07:20:00,
2013-10-31 02:25:00,46.7,44.5,29.26,SSW,202,0.0,0.0,92,0.00,,,-99.99,VWS V12.07,2013-10-31 07:25:00,
2013-10-31 02:30:00,46.7,44.5,29.26,SSW,202,0.0,0.0,92,0.00,,,-99.99,VWS V12.07,2013-10-31 07:30:00,
2013-10-31 02:35:00,46.7,44.5,29.26,SSW,202,0.4,0.4,92,0.00,,,-99.99,VWS V12.07,2013-10-31 07:35:00,
2013-10-31 02:40:00,46.7,44.5,29.26,SSW,202,0.0,0.4,92,0.00,,,-99.99,VWS V12.07,2013-10-31 07:40:00,
2013-10-31 02:45:00,46.9,44.7,29.26,SSW,202,0.0,0.4,92,0.00,,,-99.99,VWS V12.07,2013-10-31 07:45:00,
2013-10-31 02:50:00,46.9,44.7,29.26,SSW,202,0.0,0.0,92,0.00,,,-99.99,VWS V12.07,2013-10-31 07:50:00,
2013-10-31 02:55:00,46.9,44.7,29.25,SSW,202,0.0,0.0,92,0.00,,,-99.99,VWS V12.07,2013-10-31 07:55:00,
2013-10-31 03:00:00,46.9,44.7,29.24,SSW,202,0.0,0.0,92,0.00,,,-99.99,VWS V12.07,2013-10-31 08:00:00,
2013-10-31 03:05:00,46.9,44.7,29.24,SSW,202,0.0,0.0,92,0.00,,,-99.99,VWS V12.07,2013-10-31 08:05:00,
2013-10-31 03:10:00,46.9,44.7,29.22,SSW,202,0.0,0.0,92,0.00,,,-99.99,VWS V12.07,2013-10-31 08:10:00,
2013-10-31 03:15:00,46.9,44.7,29.22,SSW,202,0.0,0.0,92,0.00,,,-99.99,VWS V12.07,2013-10-31 08:15:00,
2013-10-31 03:20:00,46.9,44.7,29.21,SSW,202,0.0,0.0,92,0.00,,,-99.99,VWS V12.07,2013-10-31 08:20:00,
2013-10-31 03:25:00,46.9,44.7,29.21,SSW,202,0.0,0.0,92,0.00,,,-99.99,VWS V12.07,2013-10-31 08:25:00,
2013-10-31 03:30:00,46.9,44.7,29.22,SSW,202,0.0,0.0,92,0.00,,,-99.99,VWS V12.07,2013-10-31 08:30:00,
2013-10-31 03:35:00,46.9,44.7,29.22,SSW,202,0.0,0.0,92,0.00,,,-99.99,VWS V12.07,2013-10-31 08:35:00,
2013-10-31 03:45:00,46.9,44.7,29.21,SSW,202,0.0,0.0,92,0.00,,,-99.99,VWS V12.07,2013-10-31 08:45:00,
2013-10-31 03:50:00,46.7,44.5,29.21,SSW,202,0.0,0.0,92,0.00,,,-99.99,VWS V12.07,2013-10-31 08:50:00,
2013-10-31 03:55:00,46.7,44.5,29.21,SSW,202,0.0,0.0,92,0.00,,,-99.99,VWS V12.07,2013-10-31 08:55:00,
2013-10-31 04:00:00,46.9,44.7,29.21,SSW,202,0.0,0.0,92,0.00,,,-99.99,VWS V12.07,2013-10-31 09:00:00,
2013-10-31 04:05:00,46.9,44.7,29.21,SSW,202,0.0,0.0,92,0.00,,,-99.99,VWS V12.07,2013-10-31 09:05:00,
2013-10-31 04:10:00,46.9,44.7,29.21,SSW,202,0.0,0.0,92,0.00,,,-99.99,VWS V12.07,2013-10-31 09:10:00,
2013-10-31 04:15:00,46.9,44.7,29.21,SSW,202,0.0,0.0,92,0.00,,,-99.99,VWS V12.07,2013-10-31 09:15:00,
2013-10-31 04:20:00,46.7,44.5,29.21,SSW,202,0.0,0.0,92,0.00,,,-99.99,VWS V12.07,2013-10-31 09:20:00,
2013-10-31 04:25:00,46.7,44.5,29.21,SSW,202,0.0,0.0,92,0.00,,,-99.99,VWS V12.07,2013-10-31 09:25:00,
2013-10-31 04:30:00,46.7,44.5,29.21,SSW,202,0.0,0.0,92,0.00,,,-99.99,VWS V12.07,2013-10-31 09:30:00,
2013-10-31 04:35:00,46.7,44.5,29.21,SSW,202,0.0,0.0,92,0.00,,,-99.99,VWS V12.07,2013-10-31 09:35:00,
2013-10-31 04:40:00,46.7,44.5,29.21,SSW,202,0.0,0.0,92,0.00,,,-99.99,VWS V12.07,2013-10-31 09:40:00,
2013-10-31 04:45:00,46.7,44.5,29.20,SSW,202,0.0,0.0,92,0.00,,,-99.99,VWS V12.07,2013-10-31 09:45:00,
2013-10-31 04:50:00,46.7,44.5,29.20,SSW,202,0.0,0.0,92,0.00,,,-99.99,VWS V12.07,2013-10-31 09:50:00,
2013-10-31 05:00:00,46.5,44.3,29.19,SSW,202,0.0,0.0,92,0.00,,,-99.99,VWS V12.07,2013-10-31 10:00:00,
2013-10-31 05:05:00,46.5,44.3,29.19,SSW,202,0.0,0.0,92,0.00,,,-99.99,VWS V12.07,2013-10-31 10:05:00,
2013-10-31 05:10:00,46.5,44.3,29.19,SSW,202,0.0,0.0,92,0.00,,,-99.99,VWS V12.07,2013-10-31 10:10:00,
2013-10-31 05:15:00,46.5,44.3,29.19,SSW,202,0.0,0.0,92,0.00,,,-99.99,VWS V12.07,2013-10-31 10:15:00,
2013-10-31 05:20:00,46.5,44.3,29.19,SSW,202,0.0,0.0,92,0.00,,,-99.99,VWS V12.07,2013-10-31 10:20:00,
2013-10-31 05:25:00,46.5,44.3,29.19,SSW,202,0.0,0.0,92,0.00,,,-99.99,VWS V12.07,2013-10-31 10:25:00,
2013-10-31 05:30:00,46.4,44.2,29.18,SSW,202,0.0,0.0,92,0.00,,,-99.99,VWS V12.07,2013-10-31 10:30:00,
2013-10-31 05:35:00,46.4,44.2,29.18,SSW,202,0.0,0.0,92,0.00,,,-99.99,VWS V12.07,2013-10-31 10:35:00,
2013-10-31 05:40:00,46.4,44.2,29.18,SSW,202,0.0,0.0,92,0.00,,,-99.99,VWS V12.07,2013-10-31 10:40:00,
2013-10-31 05:45:00,46.2,44.0,29.18,SSW,202,0.0,0.0,92,0.00,,,-99.99,VWS V12.07,2013-10-31 10:45:00,
2013-10-31 05:50:00,46.2,44.0,29.18,SSW,202,0.0,0.0,92,0.00,,,-99.99,VWS V12.07,2013-10-31 10:50:00,
2013-10-31 05:55:00,46.2,44.0,29.18,SSW,202,0.0,0.0,92,0.00,,,-99.99,VWS V12.07,2013-10-31 10:55:00,
2013-10-31 06:00:00,46.2,44.0,29.17,SSW,202,0.0,0.0,92,0.02,,,-99.99,VWS V12.07,2013-10-31 11:00:00,
2013-10-31 06:05:00,46.2,44.0,29.17,SSW,202,0.0,0.0,92,0.02,,,-99.99,VWS V12.07,2013-10-31 11:05:00,
2013-10-31 06:10:00,46.2,44.0,29.17,SSW,202,0.0,0.0,92,0.02,,,-99.99,VWS V12.07,2013-10-31 11:10:00,
2013-10-31 06:15:00,46.2,44.0,29.16,SSW,202,0.0,0.0,92,0.02,,,-99.99,VWS V12.07,2013-10-31 11:15:00,
2013-10-31 06:20:00,46.2,44.0,29.17,SSW,202,0.0,0.0,92,0.02,,,-99.99,VWS V12.07,2013-10-31 11:20:00,
2013-10-31 06:25:00,46.2,44.0,29.17,SSW,202,0.0,0.0,92,0.02,,,-99.99,VWS V12.07,2013-10-31 11:25:00,
2013-10-31 06:30:00,46.4,44.2,29.17,SSW,202,0.0,0.0,92,0.02,,,-99.99,VWS V12.07,2013-10-31 11:30:00,
2013-10-31 06:35:00,46.4,44.2,29.16,SSW,202,0.0,0.0,92,0.02,,,-99.99,VWS V12.07,2013-10-31 11:35:00,
2013-10-31 06:40:00,46.4,44.2,29.17,SSW,202,0.0,0.0,92,0.02,,,-99.99,VWS V12.07,2013-10-31 11:40:00,
2013-10-31 06:45:00,46.4,44.2,29.17,SSW,202,0.0,0.0,92,0.02,,,-99.99,VWS V12.07,2013-10-31 11:45:00,
2013-10-31 06:50:00,46.5,44.3,29.17,SSW,202,0.0,0.0,92,0.02,,,-99.99,VWS V12.07,2013-10-31 11:50:00,
2013-10-31 06:55:00,46.5,44.3,29.16,SSW,202,0.0,0.0,92,0.02,,,-99.99,VWS V12.07,2013-10-31 11:55:00,
2013-10-31 07:00:00,46.5,44.3,29.16,SSW,202,0.0,0.0,92,0.04,,,-99.99,VWS V12.07,2013-10-31 12:00:00,
2013-10-31 07:05:00,46.5,44.3,29.16,SSW,202,0.0,0.0,92,0.06,,,-99.99,VWS V12.07,2013-10-31 12:05:00,
2013-10-31 07:10:00,46.5,44.3,29.16,SSW,202,0.0,0.0,92,0.08,,,-99.99,VWS V12.07,2013-10-31 12:10:00,
2013-10-31 07:15:00,46.5,44.3,29.16,SSW,202,0.0,0.0,92,0.08,,,-99.99,VWS V12.07,2013-10-31 12:15:00,
2013-10-31 07:20:00,46.7,44.5,29.15,SSW,202,0.0,0.0,92,0.08,,,-99.99,VWS V12.07,2013-10-31 12:20:00,
2013-10-31 07:25:00,46.7,44.5,29.15,SSW,202,0.0,0.0,92,0.08,,,-99.99,VWS V12.07,2013-10-31 12:25:00,
2013-10-31 07:30:00,46.7,44.5,29.15,SSW,202,0.0,0.0,92,0.08,,,-99.99,VWS V12.07,2013-10-31 12:30:00,
2013-10-31 07:35:00,46.7,44.5,29.15,SSW,202,0.0,0.0,92,0.08,,,-99.99,VWS V12.07,2013-10-31 12:35:00,
2013-10-31 07:40:00,46.7,44.5,29.15,SSW,202,0.0,0.0,92,0.10,,,-99.99,VWS V12.07,2013-10-31 12:40:00,
2013-10-31 07:45:00,46.9,44.7,29.15,SSW,202,0.0,0.0,92,0.10,,,-99.99,VWS V12.07,2013-10-31 12:45:00,
2013-10-31 07:50:00,46.7,44.5,29.13,SSW,202,0.0,0.0,92,0.10,,,-99.99,VWS V12.07,2013-10-31 12:50:00,
2013-10-31 07:55:00,46.7,44.5,29.14,SSW,202,0.0,0.0,92,0.06,,,-99.99,VWS V12.07,2013-10-31 12:55:00,
2013-10-31 08:00:00,46.7,44.5,29.14,SSW,202,0.0,0.0,92,0.06,,,-99.99,VWS V12.07,2013-10-31 13:00:00,
2013-10-31 08:05:00,46.7,44.5,29.14,SSW,202,0.0,0.0,92,0.04,,,-99.99,VWS V12.07,2013-10-31 13:05:00,
2013-10-31 08:10:00,46.7,44.5,29.13,SSW,202,0.0,0.0,92,0.04,,,-99.99,VWS V12.07,2013-10-31 13:10:00,
2013-10-31 08:15:00,46.7,44.5,29.13,SSW,202,0.0,0.0,92,0.04,,,-99.99,VWS V12.07,2013-10-31 13:15:00,
2013-10-31 08:20:00,46.7,44.5,29.13,SSW,202,0.0,0.0,92,0.04,,,-99.99,VWS V12.07,2013-10-31 13:20:00,
2013-10-31 08:25:00,46.7,44.5,29.14,SSW,202,0.0,0.0,92,0.04,,,-99.99,VWS V12.07,2013-10-31 13:25:00,
2013-10-31 08:30:00,46.7,44.5,29.13,SSW,202,0.0,0.0,92,0.04,,,-99.99,VWS V12.07,2013-10-31 13:30:00,
2013-10-31 08:35:00,46.7,44.5,29.13,SSW,202,0.0,0.0,92,0.04,,,-99.99,VWS V12.07,2013-10-31 13:35:00,
2013-10-31 08:40:00,46.7,44.5,29.13,SSW,202,0.0,0.0,92,0.02,,,-99.99,VWS V12.07,2013-10-31 13:40:00,
2013-10-31 08:45:00,46.7,44.5,29.13,SSW,202,0.0,0.0,92,0.02,,,-99.99,VWS V12.07,2013-10-31 13:45:00,
2013-10-31 08:50:00,46.7,44.5,29.12,SSW,202,0.0,0.0,92,0.02,,,-99.99,VWS V12.07,2013-10-31 13:50:00,
2013-10-31 08:55:00,46.9,44.7,29.12,SSW,202,0.0,0.0,92,0.02,,,-99.99,VWS V12.07,2013-10-31 13:55:00,
2013-10-31 09:00:00,46.9,44.7,29.12,SSW,202,0.0,0.0,92,0.02,,,-99.99,VWS V12.07,2013-10-31 14:00:00,
2013-10-31 09:05:00,46.9,44.7,29.12,SSW,202,0.0,0.0,92,0.02,,,-99.99,VWS V12.07,2013-10-31 14:05:00,
2013-10-31 09:10:00,46.9,44.7,29.11,SSW,202,0.0,0.0,92,0.00,,,-99.99,VWS V12.07,2013-10-31 14:10:00,
2013-10-31 09:15:00,46.9,44.7,29.11,SSW,202,0.0,0.0,92,0.00,,,-99.99,VWS V12.07,2013-10-31 14:15:00,
2013-10-31 09:20:00,46.9,44.7,29.11,SSW,202,0.0,0.0,92,0.00,,,-99.99,VWS V12.07,2013-10-31 14:20:00,
2013-10-31 09:25:00,47.1,44.9,29.11,SSW,202,0.0,0.0,92,0.00,,,-99.99,VWS V12.07,2013-10-31 14:25:00,
2013-10-31 09:30:00,47.1,44.9,29.10,SSW,202,0.0,0.0,92,0.00,,,-99.99,VWS V12.07,2013-10-31 14:30:00,
2013-10-31 09:35:00,47.1,44.9,29.10,SSW,202,0.0,0.0,92,0.00,,,-99.99,VWS V12.07,2013-10-31 14:35:00,
2013-10-31 09:40:00,47.1,44.9,29.10,SSW,202,0.0,0.0,92,0.00,,,-99.99,VWS V12.07,2013-10-31 14:40:00,
2013-10-31 09:45:00,47.1,44.9,29.09,SSW,202,0.0,0.0,92,0.00,,,-99.99,VWS V12.07,2013-10-31 14:45:00,
2013-10-31 09:50:00,47.1,44.9,29.09,SSW,202,0.0,0.0,92,0.00,,,-99.99,VWS V12.07,2013-10-31 14:50:00,
2013-10-31 09:55:00,47.1,44.9,29.09,SSW,202,0.0,0.0,92,0.00,,,-99.99,VWS V12.07,2013-10-31 14:55:00,
2013-10-31 10:00:00,47.3,45.1,29.09,SSW,202,0.0,0.0,92,0.00,,,-99.99,VWS V12.07,2013-10-31 15:00:00,
2013-10-31 10:05:00,47.3,45.1,29.09,SSW,202,0.0,0.0,92,0.00,,,-99.99,VWS V12.07,2013-10-31 15:05:00,
2013-10-31 10:10:00,47.4,45.2,29.09,SSW,202,0.0,0.0,92,0.00,,,-99.99,VWS V12.07,2013-10-31 15:10:00,
2013-10-31 10:15:00,47.4,45.2,29.09,SSW,202,0.0,0.0,92,0.00,,,-99.99,VWS V12.07,2013-10-31 15:15:00,
2013-10-31 10:20:00,47.4,45.2,29.09,SSW,202,0.0,0.0,92,0.00,,,-99.99,VWS V12.07,2013-10-31 15:20:00,
2013-10-31 10:25:00,47.4,45.2,29.09,SSW,202,0.0,0.0,92,0.00,,,-99.99,VWS V12.07,2013-10-31 15:25:00,
2013-10-31 10:30:00,47.6,45.4,29.08,SSW,202,0.0,0.0,92,0.00,,,-99.99,VWS V12.07,2013-10-31 15:30:00,
2013-10-31 10:35:00,47.6,45.4,29.08,SSW,202,0.0,0.0,92,0.00,,,-99.99,VWS V12.07,2013-10-31 15:35:00,
2013-10-31 10:40:00,47.6,45.4,29.08,SSW,202,0.0,0.0,92,0.00,,,-99.99,VWS V12.07,2013-10-31 15:40:00,
2013-10-31 10:45:00,47.6,45.4,29.08,SSW,202,0.0,0.0,92,0.00,,,-99.99,VWS V12.07,2013-10-31 15:45:00,
2013-10-31 10:50:00,47.6,45.4,29.08,SSW,202,0.0,0.0,92,0.00,,,-99.99,VWS V12.07,2013-10-31 15:50:00,
2013-10-31 10:55:00,47.8,45.6,29.07,SSW,202,0.0,0.0,92,0.00,,,-99.99,VWS V12.07,2013-10-31 15:55:00,
2013-10-31 11:00:00,47.8,45.6,29.07,SSW,202,0.0,0.0,92,0.00,,,-99.99,VWS V12.07,2013-10-31 16:00:00,
2013-10-31 11:05:00,47.8,45.6,29.07,SSW,202,0.0,0.0,92,0.00,,,-99.99,VWS V12.07,2013-10-31 16:05:00,
2013-10-31 11:10:00,47.8,45.9,29.07,SSW,202,0.0,0.0,93,0.02,,,-99.99,VWS V12.07,2013-10-31 16:10:00,
2013-10-31 11:15:00,48.0,46.1,29.07,SSW,202,0.0,0.0,93,0.04,,,-99.99,VWS V12.07,2013-10-31 16:15:00,
2013-10-31 11:20:00,48.0,46.1,29.07,SSW,202,0.0,0.0,93,0.04,,,-99.99,VWS V12.07,2013-10-31 16:20:00,
2013-10-31 11:25:00,48.0,46.1,29.06,SSW,202,0.0,0.0,93,0.04,,,-99.99,VWS V12.07,2013-10-31 16:25:00,
2013-10-31 11:30:00,48.0,46.1,29.06,SSW,202,0.0,0.0,93,0.04,,,-99.99,VWS V12.07,2013-10-31 16:30:00,
2013-10-31 11:35:00,48.0,46.1,29.06,SSW,202,0.0,0.0,93,0.04,,,-99.99,VWS V12.07,2013-10-31 16:35:00,
2013-10-31 11:40:00,48.0,46.1,29.06,SSW,202,0.0,0.0,93,0.04,,,-99.99,VWS V12.07,2013-10-31 16:40:00,
2013-10-31 11:45:00,48.0,46.1,29.06,SSW,202,0.0,0.0,93,0.04,,,-99.99,VWS V12.07,2013-10-31 16:45:00,
2013-10-31 11:50:00,48.0,46.1,29.05,SSW,202,0.0,0.0,93,0.04,,,-99.99,VWS V12.07,2013-10-31 16:50:00,
2013-10-31 11:55:00,48.0,46.1,29.05,SSW,202,0.0,0.0,93,0.04,,,-99.99,VWS V12.07,2013-10-31 16:55:00,
2013-10-31 12:00:00,48.3,46.4,29.04,SSW,202,0.0,0.0,93,0.04,,,-99.99,VWS V12.07,2013-10-31 17:00:00,
2013-10-31 12:05:00,48.3,46.4,29.04,SSW,202,0.0,0.0,93,0.04,,,-99.99,VWS V12.07,2013-10-31 17:05:00,
2013-10-31 12:10:00,48.5,46.6,29.03,SSW,202,0.0,0.0,93,0.02,,,-99.99,VWS V12.07,2013-10-31 17:10:00,
2013-10-31 12:15:00,48.7,46.8,29.03,SSW,202,0.0,0.0,93,0.00,,,-99.99,VWS V12.07,2013-10-31 17:15:00,
2013-10-31 12:20:00,48.7,46.8,29.03,SSW,202,0.0,0.0,93,0.00,,,-99.99,VWS V12.07,2013-10-31 17:20:00,
2013-10-31 12:25:00,48.9,47.0,29.03,SSW,202,0.0,0.0,93,0.00,,,-99.99,VWS V12.07,2013-10-31 17:25:00,
2013-10-31 12:30:00,48.9,47.0,29.02,SSW,202,0.0,0.0,93,0.00,,,-99.99,VWS V12.07,2013-10-31 17:30:00,
2013-10-31 12:35:00,48.9,47.0,29.02,SSW,202,0.0,0.0,93,0.00,,,-99.99,VWS V12.07,2013-10-31 17:35:00,
2013-10-31 12:40:00,48.9,47.0,29.02,SSW,202,0.0,0.0,93,0.00,,,-99.99,VWS V12.07,2013-10-31 17:40:00,
2013-10-31 12:45:00,49.1,47.2,29.01,SSW,202,0.0,0.0,93,0.00,,,-99.99,VWS V12.07,2013-10-31 17:45:00,
2013-10-31 12:50:00,49.1,47.2,29.01,SSW,202,0.0,0.0,93,0.00,,,-99.99,VWS V12.07,2013-10-31 17:50:00,
2013-10-31 12:55:00,48.9,47.0,29.01,SSW,202,0.0,0.0,93,0.00,,,-99.99,VWS V12.07,2013-10-31 17:55:00,
2013-10-31 13:00:00,49.1,47.2,29.00,SSW,202,0.0,0.0,93,0.00,,,-99.99,VWS V12.07,2013-10-31 18:00:00,
2013-10-31 13:05:00,49.1,47.2,29.00,SSW,202,0.0,0.0,93,0.00,,,-99.99,VWS V12.07,2013-10-31 18:05:00,
2013-10-31 13:10:00,49.2,47.3,29.00,SSW,202,0.0,0.0,93,0.00,,,-99.99,VWS V12.07,2013-10-31 18:10:00,
2013-10-31 13:15:00,49.2,47.3,28.99,SSW,202,0.0,0.0,93,0.00,,,-99.99,VWS V12.07,2013-10-31 18:15:00,
2013-10-31 13:20:00,49.6,47.7,28.99,SSW,202,0.0,0.0,93,0.00,,,-99.99,VWS V12.07,2013-10-31 18:20:00,
2013-10-31 13:25:00,49.6,47.7,28.98,SSW,202,0.0,0.0,93,0.00,,,-99.99,VWS V12.07,2013-10-31 18:25:00,
2013-10-31 13:30:00,49.6,47.7,28.98,SSW,202,0.0,0.0,93,0.00,,,-99.99,VWS V12.07,2013-10-31 18:30:00,
2013-10-31 13:35:00,49.6,47.7,28.98,SSW,202,0.0,0.0,93,0.00,,,-99.99,VWS V12.07,2013-10-31 18:35:00,
2013-10-31 13:40:00,49.6,47.7,28.98,SSW,202,0.0,0.0,93,0.00,,,-99.99,VWS V12.07,2013-10-31 18:40:00,
2013-10-31 13:45:00,49.6,47.7,28.97,SSW,202,0.0,0.0,93,0.00,,,-99.99,VWS V12.07,2013-10-31 18:45:00,
2013-10-31 13:50:00,49.6,47.7,28.97,SSW,202,0.0,0.0,93,0.00,,,-99.99,VWS V12.07,2013-10-31 18:50:00,
2013-10-31 13:55:00,49.6,47.7,28.97,SSW,202,0.0,0.0,93,0.00,,,-99.99,VWS V12.07,2013-10-31 18:55:00,
2013-10-31 14:00:00,49.6,47.7,28.97,SSW,202,0.0,0.0,93,0.00,,,-99.99,VWS V12.07,2013-10-31 19:00:00,
2013-10-31 14:05:00,49.6,47.7,28.96,SSW,202,0.0,0.0,93,0.00,,,-99.99,VWS V12.07,2013-10-31 19:05:00,
2013-10-31 14:10:00,49.8,47.9,28.96,SSW,202,0.0,0.0,93,0.00,,,-99.99,VWS V12.07,2013-10-31 19:10:00,
2013-10-31 14:15:00,49.8,47.9,28.96,SSW,202,0.0,0.0,93,0.00,,,-99.99,VWS V12.07,2013-10-31 19:15:00,
2013-10-31 14:20:00,49.8,47.9,28.96,SSW,202,0.0,0.0,93,0.00,,,-99.99,VWS V12.07,2013-10-31 19:20:00,
2013-10-31 14:25:00,49.8,47.9,28.96,SSW,202,0.0,0.0,93,0.00,,,-99.99,VWS V12.07,2013-10-31 19:25:00,
2013-10-31 14:30:00,50.0,48.1,28.95,SSW,202,0.0,0.0,93,0.00,,,-99.99,VWS V12.07,2013-10-31 19:30:00,
2013-10-31 14:35:00,50.1,48.2,28.94,SSW,202,0.0,0.0,93,0.00,,,-99.99,VWS V12.07,2013-10-31 19:35:00,
2013-10-31 14:40:00,50.1,48.2,28.94,SSW,202,0.0,0.0,93,0.00,,,-99.99,VWS V12.07,2013-10-31 19:40:00,
2013-10-31 14:45:00,50.1,48.2,28.94,SSW,202,0.0,0.0,93,0.00,,,-99.99,VWS V12.07,2013-10-31 19:45:00,
2013-10-31 14:50:00,50.1,48.2,28.94,SSW,202,0.0,0.0,93,0.00,,,-99.99,VWS V12.07,2013-10-31 19:50:00,
2013-10-31 14:55:00,50.1,48.2,28.93,SSW,202,0.0,0.0,93,0.00,,,-99.99,VWS V12.07,2013-10-31 19:55:00,
2013-10-31 15:00:00,50.1,48.2,28.93,SSW,202,0.0,0.0,93,0.00,,,-99.99,VWS V12.07,2013-10-31 20:00:00,
2013-10-31 15:05:00,50.1,48.2,28.93,SSW,202,0.0,0.0,93,0.00,,,-99.99,VWS V12.07,2013-10-31 20:05:00,
2013-10-31 15:10:00,50.1,48.2,28.93,SSW,202,0.0,0.0,93,0.00,,,-99.99,VWS V12.07,2013-10-31 20:10:00,
2013-10-31 15:15:00,50.1,48.2,28.93,SSW,202,0.0,0.0,93,0.00,,,-99.99,VWS V12.07,2013-10-31 20:15:00,
2013-10-31 15:20:00,50.1,48.2,28.92,SSW,202,0.0,0.0,93,0.00,,,-99.99,VWS V12.07,2013-10-31 20:20:00,
2013-10-31 15:25:00,50.1,48.2,28.92,SSW,202,0.0,0.0,93,0.00,,,-99.99,VWS V12.07,2013-10-31 20:25:00,
2013-10-31 15:30:00,50.1,48.2,28.92,SSW,202,0.0,0.0,93,0.00,,,-99.99,VWS V12.07,2013-10-31 20:30:00,
2013-10-31 15:35:00,50.1,48.2,28.92,SSW,202,0.0,0.0,93,0.00,,,-99.99,VWS V12.07,2013-10-31 20:35:00,
2013-10-31 15:40:00,50.0,48.1,28.92,SSW,202,0.0,0.0,93,0.00,,,-99.99,VWS V12.07,2013-10-31 20:40:00,
2013-10-31 15:45:00,49.8,47.9,28.92,SSW,202,0.0,0.0,93,0.00,,,-99.99,VWS V12.07,2013-10-31 20:45:00,
2013-10-31 15:50:00,49.8,47.9,28.92,SSW,202,0.0,0.0,93,0.00,,,-99.99,VWS V12.07,2013-10-31 20:50:00,
2013-10-31 15:55:00,49.8,47.9,28.91,SSW,202,0.0,0.0,93,0.00,,,-99.99,VWS V12.07,2013-10-31 20:55:00,
2013-10-31 16:00:00,49.8,47.9,28.91,SSW,202,0.0,0.0,93,0.00,,,-99.99,VWS V12.07,2013-10-31 21:00:00,
2013-10-31 16:05:00,49.8,47.9,28.91,SSW,202,0.0,0.0,93,0.00,,,-99.99,VWS V12.07,2013-10-31 21:05:00,
2013-10-31 16:10:00,49.8,47.9,28.90,SSW,202,0.0,0.0,93,0.00,,,-99.99,VWS V12.07,2013-10-31 21:10:00,
2013-10-31 16:15:00,49.8,47.9,28.90,SSW,202,0.0,0.0,93,0.00,,,-99.99,VWS V12.07,2013-10-31 21:15:00,
2013-10-31 16:20:00,49.8,47.9,28.90,SSW,202,0.0,0.0,93,0.00,,,-99.99,VWS V12.07,2013-10-31 21:20:00,
2013-10-31 16:25:00,49.8,47.9,28.90,SSW,202,0.0,0.0,93,0.00,,,-99.99,VWS V12.07,2013-10-31 21:25:00,
2013-10-31 16:30:00,49.8,47.9,28.90,SSW,202,0.0,0.0,93,0.00,,,-99.99,VWS V12.07,2013-10-31 21:30:00,
2013-10-31 16:35:00,49.8,47.9,28.90,SSW,202,0.0,0.0,93,0.00,,,-99.99,VWS V12.07,2013-10-31 21:35:00,
2013-10-31 16:40:00,49.8,47.9,28.90,SSW,202,0.0,0.0,93,0.00,,,-99.99,VWS V12.07,2013-10-31 21:40:00,
2013-10-31 16:45:00,49.8,47.9,28.90,SSW,202,0.0,0.0,93,0.00,,,-99.99,VWS V12.07,2013-10-31 21:45:00,
2013-10-31 16:50:00,49.8,47.9,28.90,SSW,202,0.0,0.0,93,0.00,,,-99.99,VWS V12.07,2013-10-31 21:50:00,
2013-10-31 16:55:00,49.8,47.9,28.90,SSW,202,0.0,0.0,93,0.00,,,-99.99,VWS V12.07,2013-10-31 21:55:00,
2013-10-31 17:00:00,49.8,47.9,28.90,SSW,202,0.0,0.0,93,0.00,,,-99.99,VWS V12.07,2013-10-31 22:00:00,
2013-10-31 17:05:00,49.8,47.9,28.90,SSW,202,0.0,0.0,93,0.00,,,-99.99,VWS V12.07,2013-10-31 22:05:00,
2013-10-31 17:10:00,49.8,47.9,28.90,SSW,202,0.0,0.0,93,0.00,,,-99.99,VWS V12.07,2013-10-31 22:10:00,
2013-10-31 17:15:00,49.8,47.9,28.90,SSW,202,0.0,0.0,93,0.00,,,-99.99,VWS V12.07,2013-10-31 22:15:00,
2013-10-31 17:20:00,49.8,47.9,28.89,SSW,202,0.0,0.0,93,0.00,,,-99.99,VWS V12.07,2013-10-31 22:20:00,
2013-10-31 17:25:00,49.8,47.9,28.89,SSW,202,0.0,0.0,93,0.00,,,-99.99,VWS V12.07,2013-10-31 22:25:00,
2013-10-31 17:30:00,49.8,47.9,28.90,SSW,202,0.0,0.0,93,0.00,,,-99.99,VWS V12.07,2013-10-31 22:30:00,
2013-10-31 17:35:00,49.8,47.9,28.89,SSW,202,0.0,0.0,93,0.00,,,-99.99,VWS V12.07,2013-10-31 22:35:00,
2013-10-31 17:40:00,49.8,47.9,28.90,SSW,202,0.0,0.0,93,0.02,,,-99.99,VWS V12.07,2013-10-31 22:40:00,
2013-10-31 17:45:00,49.6,47.7,28.90,SSW,202,0.0,0.0,93,0.02,,,-99.99,VWS V12.07,2013-10-31 22:45:00,
2013-10-31 17:50:00,49.6,47.7,28.89,SSW,202,0.0,0.0,93,0.02,,,-99.99,VWS V12.07,2013-10-31 22:50:00,
2013-10-31 17:55:00,49.6,47.7,28.89,SSW,202,0.0,0.0,93,0.02,,,-99.99,VWS V12.07,2013-10-31 22:55:00,
2013-10-31 18:00:00,49.6,47.7,28.89,SSW,202,0.0,0.0,93,0.02,,,-99.99,VWS V12.07,2013-10-31 23:00:00,
2013-10-31 18:05:00,49.6,47.7,28.88,SSW,202,0.0,0.0,93,0.02,,,-99.99,VWS V12.07,2013-10-31 23:05:00,
2013-10-31 18:10:00,49.6,47.7,28.88,SSW,202,0.0,0.0,93,0.02,,,-99.99,VWS V12.07,2013-10-31 23:10:00,
2013-10-31 18:15:00,49.6,47.7,28.89,SSW,202,0.0,0.0,93,0.04,,,-99.99,VWS V12.07,2013-10-31 23:15:00,
2013-10-31 18:20:00,49.6,47.7,28.89,SSW,202,0.0,0.0,93,0.04,,,-99.99,VWS V12.07,2013-10-31 23:20:00,
2013-10-31 18:25:00,49.6,47.7,28.88,SSW,202,0.0,0.0,93,0.04,,,-99.99,VWS V12.07,2013-10-31 23:25:00,
2013-10-31 18:30:00,49.6,47.7,28.88,SSW,202,0.0,0.0,93,0.04,,,-99.99,VWS V12.07,2013-10-31 23:30:00,
2013-10-31 18:35:00,49.4,47.5,28.88,SSW,202,0.0,0.0,93,0.04,,,-99.99,VWS V12.07,2013-10-31 23:35:00,
2013-10-31 18:40:00,49.4,47.5,28.88,SSW,202,0.0,0.0,93,0.02,,,-99.99,VWS V12.07,2013-10-31 23:40:00,
2013-10-31 18:45:00,49.4,47.5,28.88,SSW,202,0.0,0.0,93,0.02,,,-99.99,VWS V12.07,2013-10-31 23:45:00,
2013-10-31 18:50:00,49.4,47.5,28.88,SSW,202,0.0,0.0,93,0.02,,,-99.99,VWS V12.07,2013-10-31 23:50:00,
2013-10-31 18:55:00,49.4,47.5,28.88,SSW,202,0.0,0.0,93,0.02,,,-99.99,VWS V12.07,2013-10-31 23:55:00,
2013-10-31 19:00:00,49.2,47.3,28.87,SSW,202,0.0,0.0,93,0.02,,,-99.99,VWS V12.07,2013-11-01 00:00:00,
2013-10-31 19:05:00,49.2,47.3,28.87,SSW,202,0.0,0.0,93,0.02,,,-99.99,VWS V12.07,2013-11-01 00:05:00,
2013-10-31 19:10:00,49.2,47.3,28.87,SSW,202,0.0,0.0,93,0.02,,,-99.99,VWS V12.07,2013-11-01 00:10:00,
2013-10-31 19:15:00,49.2,47.3,28.87,SSW,202,0.0,0.0,93,0.00,,,-99.99,VWS V12.07,2013-11-01 00:15:00,
2013-10-31 19:20:00,49.2,47.3,28.86,SSW,202,0.0,0.0,93,0.00,,,-99.99,VWS V12.07,2013-11-01 00:20:00,
2013-10-31 19:25:00,49.2,47.3,28.86,SSW,202,0.0,0.0,93,0.00,,,-99.99,VWS V12.07,2013-11-01 00:25:00,
2013-10-31 19:35:00,49.1,47.2,28.86,SSW,202,0.0,0.0,93,0.00,,,-99.99,VWS V12.07,2013-11-01 00:35:00,
2013-10-31 19:40:00,49.1,47.2,28.86,NW,315,1.3,1.3,93,0.00,,,-99.99,VWS V12.07,2013-11-01 00:40:00,
2013-10-31 19:45:00,49.1,47.2,28.86,NW,315,0.0,1.3,93,0.00,,,-99.99,VWS V12.07,2013-11-01 00:45:00,
2013-10-31 19:50:00,49.1,47.2,28.86,NW,315,0.0,0.0,93,0.00,,,-99.99,VWS V12.07,2013-11-01 00:50:00,
2013-10-31 19:55:00,48.9,47.0,28.86,NW,315,0.0,0.0,93,0.00,,,-99.99,VWS V12.07,2013-11-01 00:55:00,
2013-10-31 20:00:00,48.9,47.0,28.86,NNW,338,2.6,2.6,93,0.00,,,-99.99,VWS V12.07,2013-11-01 01:00:00,
2013-10-31 20:05:00,48.9,47.0,28.86,NNW,338,0.0,0.0,93,0.00,,,-99.99,VWS V12.07,2013-11-01 01:05:00,
2013-10-31 20:10:00,48.7,46.8,28.86,NNW,338,0.0,4.0,93,0.00,,,-99.99,VWS V12.07,2013-11-01 01:10:00,
2013-10-31 20:15:00,48.5,46.6,28.86,NNW,338,0.0,4.0,93,0.00,,,-99.99,VWS V12.07,2013-11-01 01:15:00,
2013-10-31 20:20:00,48.3,46.4,28.85,North,0,0.0,0.0,93,0.00,,,-99.99,VWS V12.07,2013-11-01 01:20:00,
2013-10-31 20:25:00,48.2,46.3,28.86,North,0,0.0,0.0,93,0.00,,,-99.99,VWS V12.07,2013-11-01 01:25:00,
2013-10-31 20:30:00,48.0,46.1,28.85,NE,45,0.0,0.0,93,0.00,,,-99.99,VWS V12.07,2013-11-01 01:30:00,
2013-10-31 20:35:00,47.8,45.9,28.85,ENE,68,0.0,6.0,93,0.00,,,-99.99,VWS V12.07,2013-11-01 01:35:00,
2013-10-31 20:40:00,47.6,45.7,28.85,ENE,68,0.0,6.0,93,0.00,,,-99.99,VWS V12.07,2013-11-01 01:40:00,
2013-10-31 20:45:00,47.4,45.5,28.85,ENE,68,0.0,6.0,93,0.00,,,-99.99,VWS V12.07,2013-11-01 01:45:00,
2013-10-31 20:50:00,47.3,45.4,28.85,ENE,68,0.0,0.0,93,0.00,,,-99.99,VWS V12.07,2013-11-01 01:50:00,
2013-10-31 20:55:00,47.1,45.2,28.85,ENE,68,0.0,0.0,93,0.00,,,-99.99,VWS V12.07,2013-11-01 01:55:00,
2013-10-31 21:00:00,47.1,45.2,28.85,ENE,68,0.0,0.0,93,0.00,,,-99.99,VWS V12.07,2013-11-01 02:00:00,
2013-10-31 21:05:00,46.9,45.0,28.85,ENE,68,0.0,0.0,93,0.00,,,-99.99,VWS V12.07,2013-11-01 02:05:00,
2013-10-31 21:10:00,46.9,45.0,28.85,NNW,338,0.0,0.0,93,0.00,,,-99.99,VWS V12.07,2013-11-01 02:10:00,
2013-10-31 21:15:00,46.9,45.0,28.85,NE,45,0.0,0.0,93,0.02,,,-99.99,VWS V12.07,2013-11-01 02:15:00,
2013-10-31 21:20:00,46.5,44.6,28.85,NNW,338,0.0,0.0,93,0.02,,,-99.99,VWS V12.07,2013-11-01 02:20:00,
2013-10-31 21:25:00,46.5,44.6,28.84,NNW,338,0.0,0.0,93,0.02,,,-99.99,VWS V12.07,2013-11-01 02:25:00,
2013-10-31 21:30:00,46.2,44.3,28.85,North,0,0.0,0.0,93,0.02,,,-99.99,VWS V12.07,2013-11-01 02:30:00,
2013-10-31 21:35:00,46.2,44.3,28.85,North,0,0.0,0.0,93,0.02,,,-99.99,VWS V12.07,2013-11-01 02:35:00,
2013-10-31 21:40:00,46.2,44.3,28.84,NNW,338,0.0,0.0,93,0.02,,,-99.99,VWS V12.07,2013-11-01 02:40:00,
2013-10-31 21:45:00,46.0,44.1,28.85,NNW,338,0.0,0.0,93,0.02,,,-99.99,VWS V12.07,2013-11-01 02:45:00,
2013-10-31 21:50:00,46.0,44.1,28.84,NNW,338,0.0,0.0,93,0.02,,,-99.99,VWS V12.07,2013-11-01 02:50:00,
2013-10-31 21:55:00,45.6,43.7,28.83,NE,45,0.0,0.0,93,0.02,,,-99.99,VWS V12.07,2013-11-01 02:55:00,
2013-10-31 22:00:00,45.6,43.7,28.84,NE,45,0.0,0.0,93,0.02,,,-99.99,VWS V12.07,2013-11-01 03:00:00,
2013-10-31 22:05:00,45.6,43.7,28.84,NE,45,0.0,0.0,93,0.02,,,-99.99,VWS V12.07,2013-11-01 03:05:00,
2013-10-31 22:10:00,45.3,43.4,28.83,NNE,22,0.0,5.3,93,0.02,,,-99.99,VWS V12.07,2013-11-01 03:10:00,
2013-10-31 22:15:00,45.3,43.4,28.83,NW,315,0.0,5.3,93,0.00,,,-99.99,VWS V12.07,2013-11-01 03:15:00,
2013-10-31 22:20:00,45.3,43.4,28.83,NNE,22,0.0,0.0,93,0.00,,,-99.99,VWS V12.07,2013-11-01 03:20:00,
2013-10-31 22:25:00,45.1,43.2,28.83,NNE,22,0.0,1.3,93,0.00,,,-99.99,VWS V12.07,2013-11-01 03:25:00,
2013-10-31 22:30:00,45.1,43.2,28.83,NNE,22,3.8,3.8,93,0.00,,,-99.99,VWS V12.07,2013-11-01 03:30:00,
2013-10-31 22:35:00,44.9,43.0,28.83,NNE,22,3.3,3.3,93,0.00,,,-99.99,VWS V12.07,2013-11-01 03:35:00,
2013-10-31 22:40:00,44.9,43.0,28.83,NNE,22,0.0,3.3,93,0.00,,,-99.99,VWS V12.07,2013-11-01 03:40:00,
2013-10-31 22:45:00,44.9,43.0,28.83,NNE,22,0.0,3.3,93,0.00,,,-99.99,VWS V12.07,2013-11-01 03:45:00,
2013-10-31 22:50:00,44.9,43.0,28.84,NW,315,0.0,3.3,93,0.00,,,-99.99,VWS V12.07,2013-11-01 03:50:00,
2013-10-31 22:55:00,44.7,42.8,28.83,North,0,2.4,3.3,93,0.00,,,-99.99,VWS V12.07,2013-11-01 03:55:00,
2013-10-31 23:00:00,44.7,42.8,28.84,NNE,22,0.0,3.3,93,0.00,,,-99.99,VWS V12.07,2013-11-01 04:00:00,
2013-10-31 23:05:00,44.7,42.8,28.83,NNW,338,0.6,0.6,93,0.00,,,-99.99,VWS V12.07,2013-11-01 04:05:00,
2013-10-31 23:10:00,44.6,42.7,28.84,NNW,338,0.0,0.6,93,0.00,,,-99.99,VWS V12.07,2013-11-01 04:10:00,
2013-10-31 23:20:00,44.4,42.5,28.84,West,270,0.0,1.3,93,0.00,,,-99.99,VWS V12.07,2013-11-01 04:20:00,
2013-10-31 23:25:00,44.4,42.5,28.84,West,270,0.0,1.3,93,0.00,,,-99.99,VWS V12.07,2013-11-01 04:25:00,
2013-10-31 23:30:00,44.2,42.3,28.84,NNW,338,1.5,1.5,93,0.00,,,-99.99,VWS V12.07,2013-11-01 04:30:00,
2013-10-31 23:35:00,44.0,42.1,28.84,NE,45,0.0,0.0,93,0.00,,,-99.99,VWS V12.07,2013-11-01 04:35:00,
2013-10-31 23:40:00,43.8,41.9,28.84,NW,315,0.0,0.0,93,0.00,,,-99.99,VWS V12.07,2013-11-01 04:40:00,
2013-10-31 23:45:00,43.7,41.8,28.84,West,270,0.6,0.6,93,0.00,,,-99.99,VWS V12.07,2013-11-01 04:45:00,
2013-10-31 23:50:00,43.5,41.6,28.84,WNW,292,0.0,0.0,93,0.00,,,-99.99,VWS V12.07,2013-11-01 04:50:00,
2013-10-31 23:55:00,43.3,41.4,28.84,West,270,0.0,0.0,93,0.00,,,-99.99,VWS V12.07,2013-11-01 04:55:00,